Regional Weather Roundup
Issued by NWS Portland, ME

Home | Current Version | Previous Version | Text Only | Print | Product List | Glossary On
Versions: 1 2 3 4 5 6 7 8 9 10 11 12 13 14 15 16 17 18 19 20 21 22 23 24 25 26 27 28 29 30 31 32 33 34 35 36 37 38 39 40 41 42 43 44 45 46 47 48 49 50
000
ASUS41 KGYX 010510
RWRGYX
WEATHER ROUNDUP FOR MAINE AND NEW HAMPSHIRE
NATIONAL WEATHER SERVICE GRAY ME
100 AM EDT WED JUN 01 2016

MEZ002-005-006-010-012-015-018-020-021-024-026-027-029-010600-
MAINE

CITY           SKY/WX    TMP DP  RH WIND       PRES   REMARKS
PORTLAND       CLEAR     66  50  56 N3        29.98R
SANFORD        CLEAR     54  48  82 W3        29.99R
BAR HARBOR     CLEAR     60  52  74 N3        29.95S
WISCASSET      CLEAR     57  52  83 CALM      29.98R
ROCKLAND       PTCLDY    59  52  77 CALM      29.96R
FRYEBURG       CLOUDY    61  50  67 N9        30.00R
LEWISTONAUBURN CLEAR    N/A N/A N/A CALM      29.98S
AUGUSTA        CLEAR     63  50  62 N5        29.98R
WATERVILLE     CLEAR     60  52  74 NW8       29.95S
BANGOR         CLEAR     63  51  65 NW5       29.96S
GREENVILLE       N/A     57  51  80 NW12      29.99R
MILLINOCKET    CLOUDY    63  52  67 N3        29.98R
HOULTON        CLEAR     57  52  83 NE3       29.96R
PRESQUE ISLE   PTCLDY    54  50  86 N7        30.00R
FRENCHVILLE    CLEAR     53  44  71 N8        30.00R
CARIBOU        CLEAR     55  49  80 N5        29.99R
$$

NHZ002-005-008-009-011-012-014-010600-
NEW HAMPSHIRE

CITY           SKY/WX    TMP DP  RH WIND       PRES   REMARKS
PORTSMOUTH     PTCLDY    62  56  81 CALM      29.96R
ROCHESTER      CLEAR     60  50  69 CALM      29.98R
NASHUA         PTCLDY    67  54  63 NW7       29.98R
MANCHESTER     PTCLDY    67  52  58 N5        29.97R
CONCORD        PTCLDY    59  52  77 CALM      29.99R
LACONIA        CLEAR     57  52  83 CALM      30.01R
PLYMOUTH       FAIR      55  52  89 CALM      30.01R
BERLIN         PTCLDY    50  47  89 CALM      30.04R
WHITEFIELD     CLEAR     55  49  80 CALM      30.04R
JAFFREY        CLEAR     56  52  86 CALM      30.02S
KEENE          CLEAR    N/A N/A N/A CALM      30.01S
LEBANON        PTCLDY    58  51  78 CALM      30.02R
MT WASHINGTON  FOG       43  43 100 W32         N/A  VSB 1/16
$$

VTZ005-007-008-010600-
VERMONT

CITY           SKY/WX    TMP DP  RH WIND       PRES   REMARKS
ST JOHNSBURY     N/A     57  51  80 MISG      30.03R
MONTPELIER     FAIR      58  50  75 CALM      30.08R
BURLINGTON     CLOUDY    64  52  64 N14       30.05R
$$

MAZ007-012-024-CTZ003-RIZ002-NYZ038-NYZ072-010600-
SOUTHERN NEW ENGLAND AND NY

CITY           SKY/WX    TMP DP  RH WIND       PRES   REMARKS
BOSTON         CLEAR     73  50  44 W10       29.96R
WORCESTER      CLEAR     65  44  46 NW14      30.01R
NANTUCKET      FOG       62  60  93 W8        29.98R VSB 3/4
PROVIDENCE     CLEAR     67  62  84 W5        29.98R
HARTFORD       PTCLDY    65  47  52 CALM      29.98R
ALBANY         MOCLDY    61  49  64 N6        30.02R
NEW YORK CITY  MOCLDY    75  66  73 CALM      29.98R
$$

ANZ081-ANZ082-ANZ150-NHZ014-MEZ023>029-010600-
COASTAL MARINE OBSERVATIONS

STATION/POSITION TIME  TEMP    WIND        PRES    WAVE
                       AIR SEA DIR/SP/G            HT/PER
                 (UTC) (F)     (DEG/KT/KT) (MB)    (FT/S)
MOUNT DESERT ROC 0500   66     360/  8/  8 1014.1S
MATINICUS ROCK   0500   65     330/  5/  5 1013.9R
ISLE OF SHOALS   0500   67      20/  7/  8 1014.6R
JEFFREYS LEDGE   0408      56                N/A     2/ 9
CASHES LEDGE BUO 0450   59 52  340/  2/  4 1014.1R   3/ 5
GEORGES BANK BUO 0450   55 54              1015.0F   4/ 7
$$

.............KEY..............
   WCI - WIND CHILL
   TC  - TEMPERATURE IN CELSIUS
   VSB - VISIBILITY IN MILES
   HX  - HEAT INDEX
   FAIR- INDICATES FEW OR NO CLOUDS BELOW 12,000 FT, WITH NO
         SIGNIFICANT WEATHER AND/OR OBSTRUCTIONS TO VISIBILITY.






USA.gov is the U.S. government's official web portal to all federal, state and local government web resources and services.